Tracking 26218 objects as of 27-Sep-2022
HD Live streaming from Space Station
objects crossing your sky now

SHAKUNTALA

Track SHAKUNTALA now!
10-day predictions


NORAD ID: 52173
Int'l Code: 2022-033S
Perigee: 488.5 km
Apogee: 505.6 km
Inclination: 97.4 °
Period: 94.4 minutes
Semi major axis: 6868 km
RCS: Unknown
Launch date: April 1, 2022
Source: India (IND)
Launch site: AIR FORCE EASTERN TEST RANGE (AFETR)
aabbcc
Your satellite tracking list
Your tracking list is empty




NASA's NSSDC Master Catalog

Two Line Element Set (TLE):
1 52173U 22033S   22270.32425367  .00011965  00000-0  47693-3 0  9997
2 52173  97.3853 350.4595 0012438  14.8357  55.8104 15.25284792 27201
Source of the keplerian elements: AFSPC